This is the latest recevied weather packets stored in our database for station/object OK1TBF-15. If no packets are shown the sender has not sent any weather packets the latest 10 day(s).
| Time | Temp. | Humidity | Pressure | Rain* | Wind** | Luminosity | Snow |
|---|---|---|---|---|---|---|---|
| 1777966575 | 15° C | 43% | 1009.8 hPa | - | - | - | - |
| 1777965975 | 15° C | 41% | 1009.7 hPa | - | - | - | - |
| 1777965375 | 15.56° C | 40% | 1009.7 hPa | - | - | - | - |
| 1777964775 | 16.11° C | 39% | 1009.6 hPa | - | - | - | - |
| 1777964175 | 15.56° C | 40% | 1009.5 hPa | - | - | - | - |
| 1777963575 | 15.56° C | 40% | 1009.4 hPa | - | - | - | - |
| 1777962975 | 15.56° C | 40% | 1009.4 hPa | - | - | - | - |
| 1777962375 | 15° C | 40% | 1009.4 hPa | - | - | - | - |
| 1777961775 | 15° C | 40% | 1009.3 hPa | - | - | - | - |
| 1777961175 | 14.44° C | 41% | 1009.3 hPa | - | - | - | - |
| 1777960575 | 14.44° C | 41% | 1009.3 hPa | - | - | - | - |
| 1777959975 | 14.44° C | 40% | 1009.4 hPa | - | - | - | - |
| 1777959375 | 15° C | 40% | 1009.3 hPa | - | - | - | - |
| 1777958775 | 14.44° C | 42% | 1009.3 hPa | - | - | - | - |
| 1777958175 | 13.89° C | 41% | 1009.3 hPa | - | - | - | - |
| 1777957575 | 14.44° C | 40% | 1009.4 hPa | - | - | - | - |
| 1777956975 | 14.44° C | 40% | 1009.6 hPa | - | - | - | - |
| 1777956375 | 15° C | 38% | 1009.6 hPa | - | - | - | - |
| 1777955784 | 18.33° C | 31% | 1009.5 hPa | - | - | - | - |
| 1777955062 | 20.56° C | 43% | 1009.4 hPa | - | - | - | - |
* Rain since midnight (hover to see other rain measurements)
** Current wind speed in m/s (hover to see current wind gust speed)